Location: Shepherdstown, WV
(39.4326°N, 77.8042°W)
Time: 14:07:06
(UTC-04:00)

Tiros 1 despin weight - Pass Details

Date: 28 July 2021
Orbit: 593 x 641 km, 48.2° (Epoch: 22 September)

Event Time Altitude Azimuth Distance (km) Brightness Sun altitude
Rises 22:27:40 0° 295° (WNW) 2,925 ? -19.6°
Reaches altitude 10° 22:30:11 10° 286° (WNW) 2,008 ? -19.9°
Maximum altitude 22:34:19 33° 223° (SW) 1,054 ? -20.5°
Enters shadow 22:35:09 30° 200° (SSW) 1,108 ? -20.6°
